This is the latest recevied weather packets stored in our database for station/object F4JUT-10. If no packets are shown the sender has not sent any weather packets the latest 10 day(s).
| Time | Temp. | Humidity | Pressure | Rain* | Wind** | Luminosity | Snow |
|---|---|---|---|---|---|---|---|
| 1777830468 | 18.89° C | 35% | 1017.7 hPa | - | - | - | - |
| 1777829568 | 19.44° C | 34% | 1017.8 hPa | - | - | - | - |
| 1777828668 | 20° C | 33% | 1017.9 hPa | - | - | - | - |
| 1777827768 | 20.56° C | 33% | 1018 hPa | - | - | - | - |
| 1777826868 | 20.56° C | 32% | 1018.1 hPa | - | - | - | - |
| 1777825968 | 19.44° C | 34% | 1018.1 hPa | - | - | - | - |
| 1777825067 | 18.33° C | 35% | 1018.3 hPa | - | - | - | - |
| 1777824167 | 17.78° C | 37% | 1018.2 hPa | - | - | - | - |
| 1777823267 | 17.78° C | 35% | 1018.3 hPa | - | - | - | - |
| 1777822367 | 17.78° C | 38% | 1018.5 hPa | - | - | - | - |
| 1777821467 | 17.22° C | 39% | 1018.8 hPa | - | - | - | - |
| 1777820567 | 16.67° C | 40% | 1019 hPa | - | - | - | - |
| 1777819667 | 16.11° C | 40% | 1019.2 hPa | - | - | - | - |
| 1777818767 | 15.56° C | 40% | 1019.5 hPa | - | - | - | - |
| 1777817867 | 15.56° C | 41% | 1019.6 hPa | - | - | - | - |
| 1777816966 | 15.56° C | 40% | 1019.8 hPa | - | - | - | - |
| 1777816066 | 15.56° C | 41% | 1020 hPa | - | - | - | - |
| 1777815166 | 15.56° C | 41% | 1020.1 hPa | - | - | - | - |
| 1777814266 | 15.56° C | 44% | 1020.2 hPa | - | - | - | - |
| 1777813366 | 15° C | 45% | 1020.3 hPa | - | - | - | - |
| 1777812466 | 15° C | 43% | 1020.5 hPa | - | - | - | - |
| 1777811566 | 15° C | 44% | 1020.5 hPa | - | - | - | - |
| 1777810666 | 15° C | 45% | 1020.4 hPa | - | - | - | - |
| 1777809766 | 15° C | 41% | 1020.3 hPa | - | - | - | - |
| 1777808866 | 15° C | 40% | 1020.2 hPa | - | - | - | - |
* Rain since midnight (hover to see other rain measurements)
** Current wind speed in m/s (hover to see current wind gust speed)